Wind_Speed
39 39 39 38 37 36 35 32 29 26 25 26 28 27 26 28 28 28 28 31 33 35 35 35 34 34 35 34 35 35 35 35 34 34 34 34 34 35
38 39 38 36 35 34 32 29 26 24 23 23 23 23 24 28 29 27 27 30 32 35 35 33 32 33 34 35 36 37 37 38 39 39 38 38 38 38
35 34 33 32 32 31 28 27 26 25 24 22 22 22 24 26 26 26 26 25 24 24 25 25 27 30 32 34 36 37 39 40 41 42 42 41 41 42
28 27 25 25 25 26 27 27 27 26 24 23 22 23 24 25 24 22 21 20 20 21 22 24 27 30 32 34 36 38 40 40 41 42 43 44 44 44
23 22 23 25 25 26 27 28 27 25 24 23 22 21 21 20 18 18 18 18 19 20 21 23 25 27 30 33 35 37 38 40 42 44 45 46 46 46
21 22 24 26 27 28 28 28 26 23 22 21 20 18 16 16 16 16 18 19 20 21 22 23 24 26 28 31 34 36 38 40 43 45 46 47 48 49
20 22 24 25 25 26 25 25 24 21 19 18 18 17 16 16 16 16 17 17 19 21 23 25 27 29 31 33 35 36 38 40 42 44 46 47 48 49
21 21 23 23 22 19 17 17 17 17 18 18 17 17 16 15 14 14 15 17 19 21 23 25 27 29 31 33 36 38 41 44 46 49 51 52 54 55
21 22 20 19 18 17 16 17 17 18 17 16 15 13 12 11 12 13 15 16 18 20 22 24 26 28 30 33 36 39 41 44 47 49 51 53 54 56
19 19 18 17 16 16 17 17 17 16 14 12 11 10 9 9 10 11 13 15 17 20 22 25 27 29 31 35 38 41 44 47 50 53 55 56 57 56
17 17 17 17 17 17 16 16 15 13 11 11 10 9 8 8 9 11 13 15 17 20 22 25 26 28 30 32 35 38 41 44 46 49 53 56 58 59
17 17 17 18 17 17 17 16 14 13 12 11 11 9 8 8 9 10 11 13 15 17 19 20 21 22 24 27 29 31 33 35 37 38 41 44 49 53
15 15 16 18 18 17 16 15 15 14 14 13 12 10 8 7 7 9 11 14 15 16 17 18 19 21 24 26 29 30 32 33 34 35 36 38 40 43
14 13 15 17 18 16 15 14 15 15 14 13 12 10 8 5 6 9 11 12 13 15 16 19 22 24 26 29 31 33 34 34 34 34 34 35 37 38
15 14 15 17 16 14 14 14 15 15 14 13 11 9 7 6 8 9 9 11 13 15 18 21 23 25 27 29 32 34 35 35 33 32 31 32 33 33
17 16 16 16 15 13 14 14 14 15 14 12 10 9 8 8 9 8 8 9 11 14 17 20 22 24 26 29 31 32 32 31 30 28 28 29 30 29
19 16 14 14 14 15 15 13 13 12 12 11 10 10 9 9 9 9 7 7 10 14 17 20 24 27 30 32 32 30 27 24 23 23 24 26 27 26
19 16 14 13 13 13 12 12 12 13 13 13 12 12 10 9 9 8 7 8 11 13 16 21 25 28 30 31 31 29 25 22 20 19 20 22 25 25
19 16 15 14 13 12 11 11 13 14 15 14 13 12 9 8 8 7 7 9 11 13 17 21 25 27 29 30 31 30 27 25 23 21 20 20 21 22
18 17 16 16 14 13 12 12 14 15 15 15 14 12 10 9 9 9 8 10 12 14 18 22 25 26 27 28 29 29 28 26 25 24 24 22 20 19
17 17 17 16 15 14 14 14 14 15 16 15 15 14 13 13 13 13 14 15 16 17 20 22 24 26 27 27 27 28 29 28 27 25 24 23 22 21
14 14 14 14 14 13 13 14 14 15 17 17 17 17 17 18 18 18 19 20 20 21 21 22 23 25 26 27 27 27 28 29 30 29 27 24 22 21
13 12 12 12 13 13 13 14 16 17 18 19 19 19 20 20 21 22 23 23 23 22 21 22 23 24 25 27 28 28 28 29 30 31 31 29 25 22
Wind_Direction
268 269 270 271 271 269 268 264 257 251 247 241 237 239 247 249 244 243 244 240 236 235 235 238 242 246 248 247 242 238 238 238 237 236 234 234 234 238
267 268 269 268 265 263 260 251 242 234 235 238 236 239 245 248 249 254 256 254 249 244 241 241 242 243 244 244 243 243 242 241 240 240 240 239 237 238
269 268 266 262 257 254 246 236 228 225 230 234 236 241 245 252 261 265 263 259 254 248 246 247 247 244 242 243 245 246 246 245 244 244 246 245 244 243
265 261 256 250 245 238 232 228 223 221 227 238 246 252 255 259 263 262 255 253 252 250 251 254 255 252 249 248 248 248 248 248 247 246 246 245 245 245
252 246 246 240 235 230 227 226 223 224 232 244 251 251 252 251 247 246 247 248 247 250 254 259 260 259 258 255 253 251 251 252 253 253 252 250 249 249
243 241 238 231 225 220 220 224 225 226 236 242 241 237 236 236 239 246 250 252 255 258 261 264 264 264 264 263 261 258 256 255 256 257 257 257 256 255
236 234 230 223 218 211 213 219 223 227 228 224 222 227 234 240 246 253 259 263 266 269 270 270 271 270 270 269 267 266 265 262 259 258 257 257 258 258
237 233 229 225 221 215 210 209 211 214 213 216 222 230 238 246 254 262 267 271 273 273 272 272 272 272 272 272 271 270 269 268 266 264 263 262 262 261
245 240 234 231 226 220 211 207 209 211 213 219 225 230 238 250 263 271 273 274 273 272 272 273 275 276 276 275 274 272 270 268 267 265 264 263 262 261
251 246 244 239 230 223 218 214 211 208 205 207 216 228 243 257 265 271 276 280 282 283 284 284 284 283 282 280 278 276 274 272 269 267 265 263 262 260
249 243 238 234 232 227 221 215 209 202 197 203 214 224 238 254 268 276 281 286 289 291 291 291 290 289 287 285 284 283 282 280 278 275 271 267 264 261
243 236 231 227 223 221 219 214 208 203 200 204 211 221 235 254 273 286 295 302 305 305 304 303 302 302 302 300 299 296 294 291 288 284 279 275 270 265
230 224 220 217 214 211 206 200 198 198 200 206 212 218 228 252 287 309 319 320 321 323 323 324 322 320 318 315 311 307 302 298 295 291 287 284 280 273
213 207 200 192 184 183 185 188 194 200 207 213 218 223 234 264 305 324 330 332 333 336 339 340 338 333 328 322 315 308 302 298 296 294 291 288 285 279
205 199 191 183 181 187 191 196 205 213 218 223 227 234 247 272 298 317 331 339 341 344 347 346 343 338 332 325 317 309 302 297 295 294 293 292 289 282
197 193 189 190 198 205 204 208 218 221 223 229 235 243 254 271 289 302 321 339 344 346 349 350 348 345 341 336 328 319 311 304 298 295 295 296 293 285
192 189 192 199 205 206 209 220 225 223 227 235 239 245 255 272 286 289 303 333 343 345 349 352 352 351 350 347 342 337 330 320 310 302 300 301 302 295
194 195 195 194 198 204 213 224 228 227 232 239 244 252 260 272 281 282 298 330 340 342 346 348 350 351 352 353 351 347 344 342 336 326 315 309 307 305
198 202 202 202 206 214 222 229 234 234 238 245 249 252 253 256 263 274 305 329 334 333 338 343 347 351 354 356 356 354 350 347 344 339 332 323 317 311
203 207 210 214 220 228 230 231 234 237 243 247 250 248 246 249 256 271 297 319 325 326 331 338 343 348 352 354 356 356 355 352 349 345 340 335 328 320
203 209 215 221 228 231 230 230 231 239 246 249 250 249 249 253 263 275 288 303 313 319 324 332 340 346 351 352 352 353 353 353 351 349 346 342 337 332
201 206 212 219 224 228 230 234 237 243 250 253 252 251 254 260 268 277 283 291 301 310 316 323 331 339 347 350 349 348 347 346 346 346 345 342 337 331
199 206 215 224 232 237 240 244 248 253 258 259 257 256 260 268 275 280 282 285 293 302 307 315 323 332 340 346 348 347 344 340 339 338 338 336 334 329
Height
5728 5729 5729 5729 5729 5730 5731 5733 5735 5737 5740 5742 5744 5747 5749 5750 5750 5750 5750 5753 5755 5758 5762 5766 5770 5773 5776 5778 5780 5781 5783 5785 5788 5790 5791 5793 5796 5799
5717 5717 5717 5717 5718 5720 5721 5723 5726 5730 5733 5736 5738 5740 5741 5743 5744 5744 5745 5747 5749 5751 5754 5757 5760 5763 5766 5768 5771 5773 5775 5778 5780 5781 5782 5784 5786 5789
5705 5705 5706 5706 5708 5710 5712 5715 5719 5723 5727 5730 5731 5733 5735 5736 5737 5738 5739 5741 5742 5745 5747 5749 5752 5755 5758 5760 5762 5764 5766 5768 5770 5772 5774 5775 5776 5779
5695 5696 5697 5698 5700 5702 5705 5708 5712 5716 5720 5723 5726 5727 5729 5729 5730 5731 5733 5735 5737 5739 5741 5744 5746 5748 5750 5752 5754 5755 5756 5758 5760 5762 5764 5765 5766 5768
5687 5689 5690 5691 5693 5696 5699 5702 5706 5710 5714 5718 5720 5721 5722 5723 5725 5726 5728 5730 5732 5734 5736 5737 5738 5740 5742 5743 5744 5745 5746 5748 5749 5750 5752 5754 5755 5757
5682 5684 5685 5686 5688 5690 5694 5697 5701 5705 5709 5712 5714 5715 5717 5719 5721 5723 5724 5726 5727 5729 5730 5731 5732 5732 5733 5734 5735 5735 5736 5737 5738 5739 5740 5742 5744 5745
5679 5680 5681 5683 5684 5686 5689 5693 5697 5700 5704 5707 5709 5711 5713 5715 5717 5718 5719 5720 5722 5723 5724 5725 5725 5725 5726 5726 5726 5725 5725 5726 5726 5727 5728 5729 5730 5732
5676 5677 5678 5679 5681 5682 5685 5689 5692 5696 5700 5702 5704 5706 5708 5710 5712 5713 5714 5716 5717 5718 5719 5719 5718 5718 5717 5717 5716 5715 5714 5714 5714 5714 5714 5715 5716 5717
5672 5673 5675 5676 5678 5680 5682 5685 5689 5692 5695 5698 5700 5702 5704 5706 5707 5709 5710 5711 5711 5712 5712 5711 5710 5709 5708 5706 5704 5703 5701 5700 5699 5698 5698 5698 5699 5699
5668 5669 5671 5672 5675 5677 5680 5683 5686 5689 5692 5694 5697 5698 5700 5702 5703 5705 5705 5705 5705 5704 5703 5702 5701 5699 5697 5694 5691 5689 5687 5685 5683 5681 5680 5680 5680 5681
5663 5665 5666 5669 5671 5675 5678 5680 5683 5686 5688 5691 5692 5694 5696 5698 5699 5700 5699 5699 5699 5697 5695 5693 5691 5688 5685 5682 5679 5676 5673 5670 5667 5664 5662 5661 5661 5661
5658 5660 5662 5664 5667 5670 5674 5676 5679 5682 5685 5687 5689 5691 5692 5694 5694 5694 5694 5693 5691 5690 5687 5684 5681 5678 5675 5671 5668 5664 5660 5657 5653 5650 5647 5644 5642 5642
5653 5655 5657 5660 5662 5666 5669 5672 5676 5679 5682 5684 5686 5688 5689 5690 5689 5689 5687 5686 5685 5682 5680 5677 5673 5670 5666 5662 5658 5654 5650 5646 5641 5637 5634 5631 5628 5626
5648 5650 5653 5655 5659 5662 5666 5670 5673 5676 5679 5681 5683 5684 5684 5685 5685 5684 5683 5682 5680 5677 5674 5671 5667 5664 5660 5655 5650 5645 5640 5636 5631 5627 5623 5618 5615 5612
5644 5647 5650 5653 5656 5660 5664 5667 5670 5673 5675 5677 5678 5679 5680 5681 5681 5680 5679 5678 5676 5673 5670 5667 5663 5659 5654 5649 5643 5636 5630 5625 5621 5617 5613 5609 5605 5601
5641 5644 5647 5650 5654 5658 5661 5665 5667 5669 5671 5672 5674 5675 5676 5677 5678 5677 5676 5674 5672 5670 5666 5663 5659 5654 5648 5642 5635 5628 5621 5616 5612 5608 5604 5600 5596 5592
5637 5640 5643 5647 5650 5654 5658 5661 5663 5664 5666 5669 5670 5672 5673 5674 5673 5672 5671 5670 5668 5665 5661 5658 5653 5648 5642 5636 5628 5621 5614 5609 5604 5601 5598 5594 5590 5586
5634 5637 5640 5643 5647 5651 5655 5657 5658 5661 5663 5666 5667 5668 5669 5669 5669 5668 5666 5664 5662 5660 5657 5654 5650 5645 5638 5631 5624 5617 5610 5605 5600 5596 5593 5589 5585 5581
5631 5634 5637 5640 5644 5647 5650 5653 5655 5657 5660 5662 5663 5664 5664 5665 5664 5663 5662 5660 5658 5656 5653 5650 5646 5640 5634 5628 5621 5614 5608 5602 5597 5593 5589 5585 5581 5578
5628 5631 5634 5638 5641 5644 5647 5649 5651 5654 5656 5657 5658 5659 5659 5660 5660 5659 5657 5656 5654 5652 5649 5646 5641 5636 5630 5625 5619 5613 5607 5601 5596 5591 5587 5582 5579 5575
5624 5628 5631 5634 5637 5640 5643 5646 5648 5650 5651 5652 5653 5653 5654 5654 5654 5653 5653 5651 5650 5648 5645 5642 5637 5633 5627 5622 5617 5611 5606 5601 5595 5591 5586 5582 5577 5573
5621 5624 5627 5631 5634 5637 5639 5642 5644 5646 5647 5647 5648 5648 5648 5648 5648 5648 5647 5646 5645 5643 5641 5637 5633 5629 5624 5618 5613 5608 5603 5599 5594 5589 5584 5580 5576 5572
5619 5622 5625 5628 5631 5633 5635 5637 5639 5640 5642 5642 5643 5643 5642 5642 5642 5641 5641 5640 5639 5638 5635 5633 5629 5625 5620 5615 5610 5605 5600 5595 5591 5586 5581 5577 5573 5570